When you browse on this site, cookies collect data to enhance your experience and personalize the content and advertising you see.
Visit our Privacy Policy to learn more. By continuing to use the site, you agree to this use of cookies and data.
  • In Deutschland
  • Länderverzeichnis
  • Für 7 Tage
  • Wassertemperatur
  • Satellitenkarten
  • Wetterkarte
  • Widgets
  • user-avatar
    Anmelden

    Stündliche Wetter Cairns

    Heute, 23 März, Samstag

    Zeit Temperatur Niederschläge Wind Luftdruck Luftfeuchtigkeit
    00:00 +26°C° 0.2 mm 4 m/S 757 mmHg 98%
    01:00 +26°C° 0.2 mm 4 m/S 757 mmHg 98%
    02:00 +26°C° 0.3 mm 4 m/S 757 mmHg 97%
    03:00 +26°C° 0.3 mm 4 m/S 757 mmHg 97%
    04:00 +26°C° 0 mm 4 m/S 756 mmHg 97%
    05:00 +26°C° 0.2 mm 4 m/S 757 mmHg 97%
    06:00 +26°C° 0.2 mm 3 m/S 757 mmHg 97%
    07:00 +26°C° 0.2 mm 3 m/S 757 mmHg 97%
    08:00 +27°C° 0.4 mm 3 m/S 758 mmHg 93%
    09:00 +28°C° 0.4 mm 3 m/S 758 mmHg 90%
    10:00 +30°C° 0 mm 3 m/S 758 mmHg 84%
    11:00 +31°C° 1 mm 3 m/S 758 mmHg 83%
    12:00 +31°C° 1 mm 3 m/S 758 mmHg 82%
    13:00 +31°C° 1 mm 2 m/S 757 mmHg 81%
    14:00 +31°C° 0.4 mm 2 m/S 757 mmHg 81%
    15:00 +31°C° 0.4 mm 2 m/S 757 mmHg 81%
    16:00 +31°C° 0.4 mm 2 m/S 757 mmHg 82%
    17:00 +29°C° 0.2 mm 2 m/S 757 mmHg 87%
    18:00 +28°C° 0.2 mm 2 m/S 757 mmHg 92%
    19:00 +27°C° 0.2 mm 2 m/S 757 mmHg 97%
    20:00 +27°C° 0.1 mm 2 m/S 758 mmHg 97%
    21:00 +27°C° 0.1 mm 2 m/S 758 mmHg 98%
    22:00 +27°C° 0.1 mm 2 m/S 758 mmHg 98%
    23:00 +26°C° 0 mm 2 m/S 758 mmHg 98%

    Morgen, 24 März, Sonntag

    Zeit Temperatur Niederschläge Wind Luftdruck Luftfeuchtigkeit
    00:00 +26°C° 0 mm 2 m/S 758 mmHg 98%
    01:00 +26°C° 0 mm 2 m/S 758 mmHg 98%
    02:00 +26°C° 0 mm 2 m/S 758 mmHg 98%
    03:00 +26°C° 0 mm 2 m/S 757 mmHg 98%
    04:00 +26°C° 0 mm 2 m/S 757 mmHg 98%
    05:00 +26°C° 0 mm 2 m/S 757 mmHg 98%
    06:00 +26°C° 0 mm 2 m/S 758 mmHg 97%
    07:00 +26°C° 0 mm 2 m/S 758 mmHg 97%
    08:00 +28°C° 0 mm 2 m/S 758 mmHg 90%
    09:00 +29°C° 0 mm 2 m/S 758 mmHg 83%
    10:00 +31°C° 0 mm 3 m/S 759 mmHg 77%
    11:00 +31°C° 0.2 mm 3 m/S 758 mmHg 77%
    12:00 +31°C° 0.2 mm 3 m/S 758 mmHg 78%
    13:00 +33°C° 0.2 mm 3 m/S 757 mmHg 78%
    14:00 +31°C° 0.9 mm 3 m/S 757 mmHg 81%
    15:00 +31°C° 0.9 mm 2 m/S 757 mmHg 84%
    16:00 +30°C° 0.9 mm 2 m/S 756 mmHg 87%
    17:00 +29°C° 0.3 mm 2 m/S 757 mmHg 90%
    18:00 +28°C° 0.3 mm 2 m/S 757 mmHg 93%
    19:00 +27°C° 0.3 mm 2 m/S 757 mmHg 96%
    20:00 +27°C° 0 mm 1 m/S 758 mmHg 97%
    21:00 +27°C° 0 mm 1 m/S 758 mmHg 97%
    22:00 +27°C° 0 mm 1 m/S 759 mmHg 97%
    23:00 +27°C° 0.1 mm 1 m/S 759 mmHg 97%

    übermorgen, 25 März, Montag

    Zeit Temperatur Niederschläge Wind Luftdruck Luftfeuchtigkeit
    00:00 +27°C° 0.1 mm 1 m/S 758 mmHg 97%
    01:00 +27°C° 0.1 mm 1 m/S 758 mmHg 98%
    02:00 +27°C° 0.2 mm 1 m/S 758 mmHg 98%
    03:00 +27°C° 0.2 mm 1 m/S 758 mmHg 98%
    04:00 +27°C° 0.2 mm 1 m/S 757 mmHg 98%
    05:00 +27°C° 0.2 mm 1 m/S 758 mmHg 98%
    06:00 +27°C° 0.2 mm 1 m/S 758 mmHg 98%
    07:00 +27°C° 0.2 mm 1 m/S 758 mmHg 98%
    08:00 +28°C° 0.1 mm 2 m/S 759 mmHg 91%
    09:00 +30°C° 0.1 mm 2 m/S 759 mmHg 84%
    10:00 +31°C° 0.1 mm 2 m/S 759 mmHg 77%
    11:00 +32°C° 0.1 mm 2 m/S 759 mmHg 73%
    12:00 +34°C° 0.1 mm 2 m/S 758 mmHg 70%
    13:00 +34°C° 0.1 mm 3 m/S 758 mmHg 67%
    14:00 +34°C° 0.1 mm 3 m/S 757 mmHg 69%
    15:00 +33°C° 0.1 mm 3 m/S 757 mmHg 71%
    16:00 +33°C° 0.1 mm 3 m/S 756 mmHg 73%
    17:00 +30°C° 0.1 mm 2 m/S 757 mmHg 81%
    18:00 +29°C° 0.1 mm 2 m/S 757 mmHg 88%
    19:00 +28°C° 0.1 mm 1 m/S 758 mmHg 95%
    20:00 +27°C° 0.2 mm 1 m/S 758 mmHg 95%
    21:00 +27°C° 0.2 mm 1 m/S 759 mmHg 96%
    22:00 +27°C° 0.2 mm 1 m/S 760 mmHg 97%
    23:00 +27°C° 0.1 mm 1 m/S 759 mmHg 97%

    26 März, Dienstag

    Zeit Temperatur Niederschläge Wind Luftdruck Luftfeuchtigkeit
    00:00 +27°C° 0.1 mm 1 m/S 759 mmHg 97%
    01:00 +27°C° 0.1 mm 1 m/S 759 mmHg 98%
    02:00 +26°C° 0.2 mm 1 m/S 758 mmHg 98%
    03:00 +26°C° 0.2 mm 1 m/S 758 mmHg 98%
    04:00 +26°C° 0.2 mm 1 m/S 758 mmHg 98%
    05:00 +26°C° 0 mm 1 m/S 758 mmHg 98%
    06:00 +26°C° 0 mm 1 m/S 758 mmHg 97%
    07:00 +26°C° 0 mm 1 m/S 759 mmHg 97%
    08:00 +28°C° 0 mm 2 m/S 759 mmHg 88%
    09:00 +30°C° 0 mm 2 m/S 759 mmHg 79%
    10:00 +32°C° 0 mm 2 m/S 760 mmHg 70%
    11:00 +34°C° 0.1 mm 2 m/S 759 mmHg 69%
    12:00 +34°C° 0.1 mm 2 m/S 758 mmHg 68%
    13:00 +34°C° 0.1 mm 3 m/S 758 mmHg 67%
    14:00 +34°C° 0.1 mm 3 m/S 757 mmHg 68%
    15:00 +34°C° 0.1 mm 3 m/S 757 mmHg 70%
    16:00 +33°C° 0.1 mm 3 m/S 756 mmHg 72%
    17:00 +31°C° 0 mm 2 m/S 757 mmHg 79%
    18:00 +29°C° 0 mm 2 m/S 757 mmHg 87%
    19:00 +28°C° 0 mm 1 m/S 758 mmHg 95%
    20:00 +28°C° 0.1 mm 1 m/S 758 mmHg 95%
    21:00 +27°C° 0.1 mm 1 m/S 759 mmHg 96%
    22:00 +27°C° 0.1 mm 1 m/S 760 mmHg 97%
    23:00 +27°C° 0.1 mm 1 m/S 759 mmHg 97%

    27 März, Mittwoch

    Zeit Temperatur Niederschläge Wind Luftdruck Luftfeuchtigkeit
    00:00 +27°C° 0.1 mm 1 m/S 759 mmHg 98%
    01:00 +27°C° 0.1 mm 1 m/S 759 mmHg 98%
    02:00 +27°C° 0 mm 1 m/S 758 mmHg 98%
    03:00 +27°C° 0 mm 1 m/S 758 mmHg 98%
    04:00 +27°C° 0 mm 1 m/S 757 mmHg 98%
    05:00 +27°C° 0 mm 1 m/S 758 mmHg 98%
    06:00 +27°C° 0 mm 1 m/S 758 mmHg 98%
    07:00 +26°C° 0 mm 1 m/S 759 mmHg 98%
    08:00 +28°C° 0 mm 1 m/S 759 mmHg 88%
    09:00 +30°C° 0 mm 1 m/S 759 mmHg 78%
    10:00 +32°C° 0 mm 1 m/S 759 mmHg 69%
    11:00 +34°C° 0 mm 2 m/S 758 mmHg 67%
    12:00 +34°C° 0 mm 2 m/S 758 mmHg 64%
    13:00 +35°C° 0 mm 3 m/S 757 mmHg 62%
    14:00 +34°C° 0 mm 3 m/S 757 mmHg 65%
    15:00 +34°C° 0 mm 3 m/S 756 mmHg 67%
    16:00 +33°C° 0 mm 3 m/S 756 mmHg 69%
    17:00 +31°C° 0 mm 2 m/S 756 mmHg 77%
    18:00 +29°C° 0 mm 2 m/S 757 mmHg 86%
    19:00 +28°C° 0 mm 1 m/S 757 mmHg 94%
    20:00 +27°C° 0.1 mm 1 m/S 757 mmHg 95%
    21:00 +27°C° 0.1 mm 1 m/S 758 mmHg 96%
    22:00 +27°C° 0.1 mm 1 m/S 758 mmHg 97%
    23:00 +27°C° 0.2 mm 1 m/S 758 mmHg 97%

    28 März, Donnerstag

    Zeit Temperatur Niederschläge Wind Luftdruck Luftfeuchtigkeit
    00:00 +27°C° 0.2 mm 1 m/S 757 mmHg 97%
    01:00 +27°C° 0.2 mm 1 m/S 757 mmHg 98%
    02:00 +26°C° 0.1 mm 1 m/S 757 mmHg 98%
    03:00 +26°C° 0.1 mm 1 m/S 757 mmHg 98%
    04:00 +26°C° 0.1 mm 1 m/S 756 mmHg 98%
    05:00 +26°C° 0 mm 1 m/S 757 mmHg 98%
    06:00 +26°C° 0 mm 1 m/S 757 mmHg 98%
    07:00 +26°C° 0 mm 1 m/S 758 mmHg 98%
    08:00 +28°C° 0 mm 1 m/S 758 mmHg 88%
    09:00 +31°C° 0 mm 1 m/S 758 mmHg 77%
    10:00 +33°C° 0 mm 1 m/S 758 mmHg 67%
    11:00 +33°C° 0.1 mm 1 m/S 757 mmHg 67%
    12:00 +34°C° 0.1 mm 2 m/S 756 mmHg 66%
    13:00 +35°C° 0.1 mm 2 m/S 756 mmHg 66%
    14:00 +34°C° 0.2 mm 2 m/S 755 mmHg 69%
    15:00 +34°C° 0.2 mm 2 m/S 755 mmHg 72%
    16:00 +32°C° 0.2 mm 2 m/S 754 mmHg 74%
    17:00 +31°C° 0 mm 2 m/S 755 mmHg 81%
    18:00 +29°C° 0 mm 2 m/S 755 mmHg 87%
    19:00 +28°C° 0 mm 1 m/S 755 mmHg 93%
    20:00 +28°C° 0 mm 1 m/S 756 mmHg 93%
    21:00 +27°C° 0 mm 1 m/S 756 mmHg 94%
    22:00 +25°C° 0 mm 0 m/S 757 mmHg 95%
    23:00 +25°C° 0 mm 0 m/S 756 mmHg 95%
    Mehr zeigen